Check out our new BloomSky Weather System.

Active alerts


No alerts


Thunder radar  blitzortung!


Rain radar more information rain snow radar


Visit our other weather sites:

Template documentation
and downloads

And another site



Weather Underground History page Text

Daily Summary for March 15, 2017 Units:  Metric    English   Both
« Previous Day
Next Day »
Daily Weekly Monthly Yearly Custom
  High: Low: Average:
Temperature: 20.7 °C 7.8 °C 13.7 °C
Dew Point: 13.2 °C 7 °C 10.2 °C
Humidity: 96 % 58 % 81 %
Wind Speed: 17.7 km/h 0 km/h 4.3 km/h
Wind Gust: 25.7 km/h - -
Wind:- - SE
Pressure: 1028 hPa 1022.9 hPa -
Precipitation: 0 mm    
Historical Graphs
 
 
Tabular Data for March 15, 2017
Time Temperature Dew Point Pressure Wind Wind Speed Wind Gust Humidity Rainfall Rate (Hourly)
00:00 11.6 °C 8.6 °C 1023.2 hPa Calm     82 % 0 mm
00:05 11.4 °C 8.4 °C 1023.6 hPa Calm     82 % 0 mm
00:10 11.3 °C 8.5 °C 1023.6 hPa Calm     83 % 0 mm
00:15 11.2 °C 8.6 °C 1023.6 hPa Calm     84 % 0 mm
00:20 11.1 °C 8.7 °C 1023.6 hPa Calm     85 % 0 mm
00:25 10.9 °C 8.5 °C 1023.6 hPa Calm     85 % 0 mm
00:30 10.7 °C 8.3 °C 1023.6 hPa Calm     85 % 0 mm
00:35 10.6 °C 8.2 °C 1023.6 hPa Calm     85 % 0 mm
00:40 10.6 °C 8.4 °C 1023.6 hPa Calm     86 % 0 mm
00:45 10.5 °C 8.3 °C 1023.6 hPa Calm     86 % 0 mm
00:50 10.3 °C 8.2 °C 1023.6 hPa Calm     87 % 0 mm
00:55 10.3 °C 8.2 °C 1023.6 hPa Calm     87 % 0 mm
01:00 10.3 °C 8.4 °C 1023.6 hPa Calm     88 % 0 mm
01:05 10.3 °C 8.6 °C 1023.6 hPa Calm     89 % 0 mm
01:10 10.3 °C 8.6 °C 1023.6 hPa Calm     89 % 0 mm
01:15 10.2 °C 8.5 °C 1023.6 hPa Calm     89 % 0 mm
01:20 10.1 °C 8.4 °C 1023.9 hPa Calm     89 % 0 mm
01:25 10.1 °C 8.5 °C 1023.9 hPa Calm     90 % 0 mm
01:30 9.9 °C 8.3 °C 1023.9 hPa Calm     90 % 0 mm
01:35 9.9 °C 8.3 °C 1023.9 hPa Calm     90 % 0 mm
01:40 9.8 °C 8.4 °C 1023.9 hPa Calm     91 % 0 mm
01:45 9.7 °C 8.1 °C 1023.9 hPa Calm     90 % 0 mm
01:50 9.4 °C 7.8 °C 1023.9 hPa Calm     90 % 0 mm
01:56 9.4 °C 8 °C 1023.9 hPa Calm     91 % 0 mm
02:01 9.3 °C 7.9 °C 1023.9 hPa Calm     91 % 0 mm
02:06 9.2 °C 7.8 °C 1023.9 hPa Calm     91 % 0 mm
02:11 9.2 °C 8 °C 1023.9 hPa Calm     92 % 0 mm
02:16 9.3 °C 8.1 °C 1023.9 hPa Calm     92 % 0 mm
02:21 9.3 °C 8.2 °C 1023.6 hPa Calm     93 % 0 mm
02:26 9.3 °C 8.1 °C 1023.6 hPa Calm     92 % 0 mm
02:31 9.1 °C 7.7 °C 1023.6 hPa Calm     91 % 0 mm
02:36 8.8 °C 7.4 °C 1023.6 hPa Calm     91 % 0 mm
02:41 8.8 °C 7.6 °C 1023.2 hPa Calm     92 % 0 mm
02:46 8.7 °C 7.3 °C 1023.2 hPa Calm     91 % 0 mm
02:51 8.4 °C 7 °C 1023.2 hPa Calm     91 % 0 mm
02:56 8.6 °C 7.5 °C 1023.2 hPa Calm     93 % 0 mm
03:01 8.6 °C 7.5 °C 1023.2 hPa Calm     93 % 0 mm
03:06 8.6 °C 7.7 °C 1023.2 hPa Calm     94 % 0 mm
03:11 8.6 °C 7.5 °C 1023.2 hPa Calm     93 % 0 mm
03:16 8.6 °C 7.5 °C 1023.6 hPa Calm     93 % 0 mm
03:21 8.5 °C 7.4 °C 1023.6 hPa Calm     93 % 0 mm
03:26 8.6 °C 7.7 °C 1023.2 hPa Calm     94 % 0 mm
03:31 8.5 °C 7.6 °C 1023.2 hPa Calm     94 % 0 mm
03:36 8.7 °C 7.8 °C 1023.2 hPa Calm     94 % 0 mm
03:41 8.7 °C 7.8 °C 1023.2 hPa Calm     94 % 0 mm
03:46 8.6 °C 7.7 °C 1023.2 hPa Calm     94 % 0 mm
03:51 8.6 °C 7.7 °C 1023.2 hPa Calm     94 % 0 mm
03:56 8.5 °C 7.6 °C 1023.2 hPa Calm     94 % 0 mm
04:01 8.4 °C 7.5 °C 1023.2 hPa Calm     94 % 0 mm
04:06 8.3 °C 7.5 °C 1023.2 hPa Calm     95 % 0 mm
04:11 8.4 °C 7.6 °C 1023.2 hPa Calm     95 % 0 mm
04:16 8.3 °C 7.5 °C 1023.2 hPa Calm     95 % 0 mm
04:21 8.3 °C 7.5 °C 1023.2 hPa Calm     95 % 0 mm
04:26 8.3 °C 7.5 °C 1023.2 hPa Calm     95 % 0 mm
04:31 8.2 °C 7.4 °C 1023.2 hPa Calm     95 % 0 mm
04:36 8.1 °C 7.3 °C 1023.2 hPa Calm     95 % 0 mm
04:37 8.1 °C 7.3 °C 1023.2 hPa Calm     95 % 0 mm
04:42 7.9 °C 7.1 °C 1022.9 hPa Calm     95 % 0 mm
04:47 7.8 °C 7 °C 1022.9 hPa Calm     95 % 0 mm
04:52 7.8 °C 7 °C 1022.9 hPa Calm     95 % 0 mm
04:57 8.1 °C 7.5 °C 1022.9 hPa Calm     96 % 0 mm
05:02 8.2 °C 7.6 °C 1023.2 hPa Calm   1.6 km/h 96 % 0 mm
05:07 8.2 °C 7.6 °C 1023.2 hPa Calm   1.6 km/h 96 % 0 mm
05:12 8.1 °C 7.3 °C 1023.2 hPa Calm   1.6 km/h 95 % 0 mm
05:17 8 °C 7.4 °C 1023.2 hPa Calm   1.6 km/h 96 % 0 mm
05:22 8.1 °C 7.5 °C 1023.2 hPa Calm   1.6 km/h 96 % 0 mm
05:27 8.2 °C 7.6 °C 1023.2 hPa Calm   1.6 km/h 96 % 0 mm
05:32 8.2 °C 7.6 °C 1023.2 hPa Calm   1.6 km/h 96 % 0 mm
05:37 8.2 °C 7.6 °C 1023.2 hPa Calm   1.6 km/h 96 % 0 mm
05:42 8.2 °C 7.6 °C 1023.2 hPa Calm   1.6 km/h 96 % 0 mm
05:47 8.2 °C 7.6 °C 1023.2 hPa Calm   1.6 km/h 96 % 0 mm
05:52 8.2 °C 7.6 °C 1023.2 hPa Calm   1.6 km/h 96 % 0 mm
05:57 8.2 °C 7.6 °C 1023.6 hPa Calm   1.6 km/h 96 % 0 mm
06:02 8.3 °C 7.7 °C 1023.6 hPa Calm   1.6 km/h 96 % 0 mm
06:07 8.2 °C 7.6 °C 1023.6 hPa Calm   1.6 km/h 96 % 0 mm
06:12 8.3 °C 7.7 °C 1023.6 hPa Calm   1.6 km/h 96 % 0 mm
06:17 8.3 °C 7.7 °C 1023.6 hPa North 1.6 km/h 1.6 km/h 96 % 0 mm
06:22 8.3 °C 7.7 °C 1023.6 hPa Calm   1.6 km/h 96 % 0 mm
06:27 8.3 °C 7.7 °C 1023.6 hPa Calm   1.6 km/h 96 % 0 mm
06:32 8.4 °C 7.8 °C 1023.9 hPa Calm   3.2 km/h 96 % 0 mm
06:37 8.4 °C 7.8 °C 1023.9 hPa Calm   3.2 km/h 96 % 0 mm
06:42 8.4 °C 7.8 °C 1024.3 hPa Calm   3.2 km/h 96 % 0 mm
06:47 8.5 °C 7.9 °C 1024.3 hPa Calm   3.2 km/h 96 % 0 mm
06:52 8.5 °C 7.9 °C 1024.6 hPa Calm   4.8 km/h 96 % 0 mm
06:57 8.6 °C 8 °C 1024.6 hPa Calm   4.8 km/h 96 % 0 mm
07:02 8.6 °C 8 °C 1024.6 hPa Calm   4.8 km/h 96 % 0 mm
07:07 8.6 °C 8 °C 1024.6 hPa Calm   6.4 km/h 96 % 0 mm
07:12 8.6 °C 8 °C 1024.9 hPa Calm   6.4 km/h 96 % 0 mm
07:17 8.7 °C 8.1 °C 1024.9 hPa NE 3.2 km/h 6.4 km/h 96 % 0 mm
07:22 8.7 °C 8.1 °C 1024.9 hPa NNW 1.6 km/h 4.8 km/h 96 % 0 mm
07:27 8.7 °C 8.1 °C 1024.9 hPa NNW 1.6 km/h 8 km/h 96 % 0 mm
07:32 8.7 °C 8.1 °C 1025.3 hPa NNE 4.8 km/h 8 km/h 96 % 0 mm
07:37 8.8 °C 8.2 °C 1025.3 hPa ENE 3.2 km/h 8 km/h 96 % 0 mm
07:43 8.8 °C 8.2 °C 1025.3 hPa NW 1.6 km/h 8 km/h 96 % 0 mm
07:48 8.8 °C 8.2 °C 1025.3 hPa East 1.6 km/h 8 km/h 96 % 0 mm
07:50 8.8 °C 8 °C 1025.6 hPa North 1.6 km/h 8 km/h 95 % 0 mm
07:55 8.8 °C 8 °C 1025.6 hPa NE 1.6 km/h 9.7 km/h 95 % 0 mm
08:00 8.8 °C 8 °C 1025.6 hPa NNE 3.2 km/h 14.5 km/h 95 % 0 mm
08:05 8.8 °C 8 °C 1025.6 hPa NNW 3.2 km/h 14.5 km/h 95 % 0 mm
08:10 8.9 °C 8.1 °C 1026 hPa NNE 4.8 km/h 14.5 km/h 95 % 0 mm
08:15 9.1 °C 8.3 °C 1026 hPa NNW 1.6 km/h 11.3 km/h 95 % 0 mm
08:20 9.3 °C 8.5 °C 1026 hPa East 4.8 km/h 11.3 km/h 95 % 0 mm
08:25 9.3 °C 8.4 °C 1026 hPa ENE 3.2 km/h 11.3 km/h 94 % 0 mm
08:30 9.6 °C 8.7 °C 1026 hPa East 1.6 km/h 9.7 km/h 94 % 0 mm
08:35 9.7 °C 8.8 °C 1026 hPa NW 1.6 km/h 9.7 km/h 94 % 0 mm
08:40 9.9 °C 8.8 °C 1026.3 hPa ENE 1.6 km/h 9.7 km/h 93 % 0 mm
08:45 10.1 °C 8.9 °C 1026.3 hPa ENE 4.8 km/h 11.3 km/h 92 % 0 mm
08:50 10.3 °C 9.1 °C 1026.3 hPa ENE 3.2 km/h 11.3 km/h 92 % 0 mm
08:55 10.6 °C 9.2 °C 1026.3 hPa East 1.6 km/h 11.3 km/h 91 % 0 mm
09:00 10.8 °C 9.1 °C 1026.6 hPa North 6.4 km/h 11.3 km/h 89 % 0 mm
09:05 11 °C 9.3 °C 1026.6 hPa East 3.2 km/h 12.9 km/h 89 % 0 mm
09:10 11.2 °C 9.1 °C 1026.6 hPa ESE 6.4 km/h 14.5 km/h 87 % 0 mm
09:15 11.2 °C 8.9 °C 1026.6 hPa ESE 9.7 km/h 14.5 km/h 86 % 0 mm
09:20 11.4 °C 8.8 °C 1026.6 hPa East 14.5 km/h 14.5 km/h 84 % 0 mm
09:25 11.4 °C 8.8 °C 1027 hPa North 3.2 km/h 14.5 km/h 84 % 0 mm
09:30 11.8 °C 9.2 °C 1027 hPa East 1.6 km/h 14.5 km/h 84 % 0 mm
09:35 11.9 °C 8.9 °C 1027 hPa ESE 11.3 km/h 14.5 km/h 82 % 0 mm
09:40 11.9 °C 8.7 °C 1027 hPa East 4.8 km/h 14.5 km/h 81 % 0 mm
09:45 12.2 °C 8.9 °C 1027 hPa Calm   14.5 km/h 80 % 0 mm
09:50 12.4 °C 9 °C 1027.3 hPa SE 1.6 km/h 14.5 km/h 80 % 0 mm
09:55 12.5 °C 9 °C 1027.3 hPa East 8 km/h 14.5 km/h 79 % 0 mm
10:00 12.4 °C 8.7 °C 1027.3 hPa ESE 3.2 km/h 14.5 km/h 78 % 0 mm
10:05 12.7 °C 9.2 °C 1027.3 hPa ENE 3.2 km/h 14.5 km/h 79 % 0 mm
10:10 13.1 °C 9.5 °C 1027.3 hPa ENE 6.4 km/h 14.5 km/h 79 % 0 mm
10:15 13.4 °C 9.3 °C 1027.3 hPa NE 1.6 km/h 14.5 km/h 76 % 0 mm
10:20 13.5 °C 9.4 °C 1027.3 hPa ENE 1.6 km/h 12.9 km/h 76 % 0 mm
10:25 13.8 °C 9.6 °C 1027.3 hPa SE 3.2 km/h 12.9 km/h 76 % 0 mm
10:30 14.2 °C 9.8 °C 1027.3 hPa ENE 1.6 km/h 9.7 km/h 75 % 0 mm
10:35 14.4 °C 9.8 °C 1027.7 hPa East 3.2 km/h 12.9 km/h 74 % 0 mm
10:41 14.5 °C 9.9 °C 1027.7 hPa ENE 3.2 km/h 14.5 km/h 74 % 0 mm
10:46 14.8 °C 10 °C 1027.3 hPa East 9.7 km/h 14.5 km/h 73 % 0 mm
10:51 15 °C 10.4 °C 1027.7 hPa East 1.6 km/h 14.5 km/h 74 % 0 mm
10:56 15.5 °C 10.7 °C 1027.7 hPa East 12.9 km/h 12.9 km/h 73 % 0 mm
11:01 15.6 °C 10.6 °C 1027.7 hPa ESE 3.2 km/h 12.9 km/h 72 % 0 mm
11:06 15.7 °C 10.9 °C 1027.7 hPa ESE 1.6 km/h 17.7 km/h 73 % 0 mm
11:11 15.8 °C 10.8 °C 1027.7 hPa SE 16.1 km/h 17.7 km/h 72 % 0 mm
11:16 15.8 °C 11 °C 1027.7 hPa NE 6.4 km/h 17.7 km/h 73 % 0 mm
11:21 16.1 °C 10.8 °C 1027.7 hPa NNW 8 km/h 17.7 km/h 71 % 0 mm
11:26 16.4 °C 11.5 °C 1027.7 hPa East 8 km/h 17.7 km/h 73 % 0 mm
11:27 16.4 °C 11.5 °C 1027.7 hPa East 8 km/h 17.7 km/h 73 % 0 mm
11:32 16.4 °C 11.3 °C 1027.7 hPa East 4.8 km/h 16.1 km/h 72 % 0 mm
11:37 16.6 °C 11.3 °C 1027.7 hPa East 6.4 km/h 17.7 km/h 71 % 0 mm
11:42 16.7 °C 11.2 °C 1028 hPa ENE 8 km/h 17.7 km/h 70 % 0 mm
11:47 16.8 °C 11.5 °C 1028 hPa NW 3.2 km/h 17.7 km/h 71 % 0 mm
11:52 17.4 °C 12.1 °C 1027.7 hPa SE 6.4 km/h 12.9 km/h 71 % 0 mm
11:57 17.1 °C 11.1 °C 1027.7 hPa ESE 8 km/h 11.3 km/h 68 % 0 mm
12:02 17.3 °C 11.8 °C 1028 hPa East 9.7 km/h 14.5 km/h 70 % 0 mm
12:07 17.4 °C 11.4 °C 1028 hPa East 9.7 km/h 14.5 km/h 68 % 0 mm
12:12 17.7 °C 12.2 °C 1027.7 hPa SE 9.7 km/h 17.7 km/h 70 % 0 mm
12:17 17.7 °C 11.7 °C 1027.7 hPa SSE 9.7 km/h 17.7 km/h 68 % 0 mm
12:22 18.1 °C 12.1 °C 1027.7 hPa East 8 km/h 17.7 km/h 68 % 0 mm
12:27 18.1 °C 11.9 °C 1027.7 hPa SE 6.4 km/h 14.5 km/h 67 % 0 mm
12:32 18.1 °C 11.6 °C 1027.7 hPa ESE 17.7 km/h 17.7 km/h 66 % 0 mm
12:37 18.1 °C 12.1 °C 1027.7 hPa ESE 4.8 km/h 17.7 km/h 68 % 0 mm
12:38 18.1 °C 12.1 °C 1027.7 hPa East 4.8 km/h 17.7 km/h 68 % 0 mm
12:43 18.2 °C 11.7 °C 1027.7 hPa ESE 12.9 km/h 17.7 km/h 66 % 0 mm
12:48 18.3 °C 12.1 °C 1027.7 hPa ENE 3.2 km/h 17.7 km/h 67 % 0 mm
12:53 18.3 °C 11.6 °C 1027.7 hPa ENE 4.8 km/h 16.1 km/h 65 % 0 mm
12:58 18.4 °C 12.4 °C 1027.7 hPa NE 6.4 km/h 16.1 km/h 68 % 0 mm
13:03 18.6 °C 11.9 °C 1027.7 hPa SE 4.8 km/h 16.1 km/h 65 % 0 mm
13:08 18.8 °C 12.5 °C 1027.7 hPa ENE 4.8 km/h 16.1 km/h 67 % 0 mm
13:13 19.1 °C 12.4 °C 1027.7 hPa ESE 8 km/h 14.5 km/h 65 % 0 mm
13:18 19.1 °C 12.6 °C 1027.3 hPa ESE 6.4 km/h 12.9 km/h 66 % 0 mm
13:23 19.3 °C 12.3 °C 1027.7 hPa ENE 8 km/h 14.5 km/h 64 % 0 mm
13:28 19.2 °C 12.2 °C 1027.3 hPa WNW 4.8 km/h 14.5 km/h 64 % 0 mm
13:33 19.4 °C 12.7 °C 1027.3 hPa SSE 6.4 km/h 16.1 km/h 65 % 0 mm
13:38 19.7 °C 12.9 °C 1027 hPa SSW 3.2 km/h 19.3 km/h 65 % 0 mm
13:43 19.7 °C 12.2 °C 1027 hPa SE 4.8 km/h 19.3 km/h 62 % 0 mm
13:48 19.6 °C 11.9 °C 1027 hPa SE 8 km/h 19.3 km/h 61 % 0 mm
13:53 19.8 °C 12.6 °C 1027 hPa ENE 8 km/h 16.1 km/h 63 % 0 mm
13:58 20 °C 12.2 °C 1027 hPa SSE 4.8 km/h 16.1 km/h 61 % 0 mm
14:03 19.8 °C 12.1 °C 1027 hPa South 11.3 km/h 16.1 km/h 61 % 0 mm
14:08 19.8 °C 12.3 °C 1026.6 hPa SE 9.7 km/h 16.1 km/h 62 % 0 mm
14:13 19.9 °C 11.9 °C 1026.6 hPa SSE 8 km/h 16.1 km/h 60 % 0 mm
14:15 19.9 °C 12.2 °C 1026.6 hPa SSE 1.6 km/h 16.1 km/h 61 % 0 mm
14:20 20.2 °C 11.9 °C 1026.6 hPa NNE 8 km/h 19.3 km/h 59 % 0 mm
14:25 20.2 °C 12.2 °C 1026.6 hPa South 6.4 km/h 19.3 km/h 60 % 0 mm
14:30 20.3 °C 11.8 °C 1026.6 hPa ESE 6.4 km/h 19.3 km/h 58 % 0 mm
14:35 20.2 °C 12.4 °C 1026.6 hPa ESE 6.4 km/h 14.5 km/h 61 % 0 mm
14:40 20.3 °C 12.3 °C 1026.3 hPa ESE 4.8 km/h 14.5 km/h 60 % 0 mm
14:45 20.6 °C 12.6 °C 1026.3 hPa SSE 4.8 km/h 16.1 km/h 60 % 0 mm
14:50 20.3 °C 12.8 °C 1026.3 hPa South 9.7 km/h 19.3 km/h 62 % 0 mm
14:55 20.2 °C 12.2 °C 1026.3 hPa ESE 6.4 km/h 19.3 km/h 60 % 0 mm
15:00 20.1 °C 13.1 °C 1026.3 hPa ESE 14.5 km/h 19.3 km/h 64 % 0 mm
15:05 20.3 °C 12 °C 1026.3 hPa SSE 4.8 km/h 20.9 km/h 59 % 0 mm
15:10 20.4 °C 12.4 °C 1026.3 hPa East 12.9 km/h 20.9 km/h 60 % 0 mm
15:15 20.4 °C 12.6 °C 1026.3 hPa South 1.6 km/h 20.9 km/h 61 % 0 mm
15:20 20.4 °C 12.1 °C 1026 hPa SSE 8 km/h 19.3 km/h 59 % 0 mm
15:25 20.4 °C 12.4 °C 1026 hPa ESE 6.4 km/h 22.5 km/h 60 % 0 mm
15:30 20.7 °C 13.2 °C 1026 hPa East 3.2 km/h 22.5 km/h 62 % 0 mm
15:35 20.3 °C 11.8 °C 1026 hPa SE 4.8 km/h 22.5 km/h 58 % 0 mm
15:40 20 °C 12 °C 1026 hPa ESE 11.3 km/h 19.3 km/h 60 % 0 mm
15:45 20.1 °C 12.1 °C 1026 hPa ESE 9.7 km/h 19.3 km/h 60 % 0 mm
15:50 20.5 °C 12.2 °C 1026 hPa SE 9.7 km/h 17.7 km/h 59 % 0 mm
15:55 20.6 °C 12.3 °C 1026 hPa SE 14.5 km/h 20.9 km/h 59 % 0 mm
16:00 20.4 °C 12.4 °C 1026 hPa SE 11.3 km/h 20.9 km/h 60 % 0 mm
16:05 20.3 °C 12.3 °C 1026 hPa East 4.8 km/h 25.7 km/h 60 % 0 mm
16:10 20.2 °C 12.2 °C 1026 hPa SE 11.3 km/h 25.7 km/h 60 % 0 mm
16:15 20 °C 12.5 °C 1026 hPa ESE 8 km/h 25.7 km/h 62 % 0 mm
16:20 19.8 °C 11.8 °C 1026 hPa SSE 6.4 km/h 22.5 km/h 60 % 0 mm
16:25 19.4 °C 11.7 °C 1026 hPa SSE 12.9 km/h 22.5 km/h 61 % 0 mm
16:30 19.4 °C 11.7 °C 1025.6 hPa ESE 9.7 km/h 20.9 km/h 61 % 0 mm
16:35 19.2 °C 11.7 °C 1025.6 hPa East 4.8 km/h 20.9 km/h 62 % 0 mm
16:40 19.2 °C 12.2 °C 1025.6 hPa ESE 12.9 km/h 19.3 km/h 64 % 0 mm
16:45 19.3 °C 11.8 °C 1025.6 hPa ESE 8 km/h 19.3 km/h 62 % 0 mm
16:46 19.3 °C 11.8 °C 1025.6 hPa East 16.1 km/h 19.3 km/h 62 % 0 mm
16:51 19.1 °C 11.9 °C 1025.6 hPa East 4.8 km/h 17.7 km/h 63 % 0 mm
16:56 19.1 °C 11.9 °C 1025.6 hPa East 3.2 km/h 17.7 km/h 63 % 0 mm
17:01 19.2 °C 12 °C 1025.6 hPa SE 9.7 km/h 16.1 km/h 63 % 0 mm
17:06 19.3 °C 12.1 °C 1025.3 hPa SE 11.3 km/h 19.3 km/h 63 % 0 mm
17:11 19.1 °C 11.9 °C 1025.6 hPa ESE 14.5 km/h 19.3 km/h 63 % 0 mm
17:16 19.1 °C 12.1 °C 1025.3 hPa SE 6.4 km/h 19.3 km/h 64 % 0 mm
17:21 19.3 °C 12.6 °C 1025.3 hPa South 6.4 km/h 17.7 km/h 65 % 0 mm
17:26 19.5 °C 12.5 °C 1025.3 hPa SE 8 km/h 17.7 km/h 64 % 0 mm
17:31 19.5 °C 12 °C 1025.3 hPa South 4.8 km/h 17.7 km/h 62 % 0 mm
17:36 19.4 °C 12.2 °C 1025.3 hPa SE 8 km/h 20.9 km/h 63 % 0 mm
17:41 19.2 °C 12 °C 1025.3 hPa SE 11.3 km/h 20.9 km/h 63 % 0 mm
17:46 19 °C 12.3 °C 1025.3 hPa SE 8 km/h 20.9 km/h 65 % 0 mm
17:51 18.9 °C 12.2 °C 1025.3 hPa ESE 8 km/h 17.7 km/h 65 % 0 mm
17:56 18.7 °C 12.2 °C 1025.3 hPa SE 16.1 km/h 17.7 km/h 66 % 0 mm
18:01 18.4 °C 12.2 °C 1025.3 hPa SSE 8 km/h 17.7 km/h 67 % 0 mm
18:06 18.3 °C 12.1 °C 1025.3 hPa SE 8 km/h 17.7 km/h 67 % 0 mm
18:11 18.2 °C 12 °C 1025.6 hPa ESE 9.7 km/h 17.7 km/h 67 % 0 mm
18:16 18.1 °C 12.1 °C 1025.6 hPa ENE 11.3 km/h 19.3 km/h 68 % 0 mm
18:21 18.1 °C 12.3 °C 1025.6 hPa ESE 8 km/h 19.3 km/h 69 % 0 mm
18:26 18.1 °C 12.3 °C 1025.6 hPa East 6.4 km/h 19.3 km/h 69 % 0 mm
18:31 17.9 °C 12.1 °C 1025.6 hPa ESE 11.3 km/h 19.3 km/h 69 % 0 mm
18:36 17.7 °C 12.2 °C 1025.6 hPa SE 8 km/h 19.3 km/h 70 % 0 mm
18:41 17.6 °C 12.3 °C 1025.6 hPa SE 9.7 km/h 20.9 km/h 71 % 0 mm
18:46 17.4 °C 12.3 °C 1025.6 hPa East 4.8 km/h 20.9 km/h 72 % 0 mm
18:51 17.3 °C 12.2 °C 1025.6 hPa SE 9.7 km/h 20.9 km/h 72 % 0 mm
18:56 17.3 °C 12.4 °C 1025.6 hPa SSE 4.8 km/h 17.7 km/h 73 % 0 mm
19:01 17.2 °C 12.3 °C 1025.6 hPa ESE 12.9 km/h 17.7 km/h 73 % 0 mm
19:06 16.9 °C 12 °C 1025.6 hPa SE 6.4 km/h 17.7 km/h 73 % 0 mm
19:12 16.8 °C 12.1 °C 1025.6 hPa ESE 6.4 km/h 17.7 km/h 74 % 0 mm
19:16 16.6 °C 12.1 °C 1025.6 hPa SE 6.4 km/h 17.7 km/h 75 % 0 mm
19:21 16.4 °C 12 °C 1025.6 hPa SE 9.7 km/h 16.1 km/h 75 % 0 mm
19:26 16.3 °C 12.1 °C 1025.6 hPa SE 4.8 km/h 16.1 km/h 76 % 0 mm
19:31 16.1 °C 12.1 °C 1025.6 hPa ESE 8 km/h 16.1 km/h 77 % 0 mm
19:37 15.9 °C 12.1 °C 1025.6 hPa ESE 4.8 km/h 16.1 km/h 78 % 0 mm
19:42 15.7 °C 11.9 °C 1025.6 hPa ESE 9.7 km/h 16.1 km/h 78 % 0 mm
19:47 15.6 °C 12 °C 1025.6 hPa ESE 8 km/h 17.7 km/h 79 % 0 mm
19:52 15.5 °C 11.9 °C 1025.6 hPa SE 12.9 km/h 17.7 km/h 79 % 0 mm
19:57 15.3 °C 11.9 °C 1025.6 hPa SSE 4.8 km/h 17.7 km/h 80 % 0 mm
20:02 15.2 °C 11.8 °C 1025.6 hPa ESE 9.7 km/h 17.7 km/h 80 % 0 mm
20:07 15.1 °C 11.9 °C 1025.6 hPa SE 8 km/h 19.3 km/h 81 % 0 mm
20:12 15 °C 11.8 °C 1025.6 hPa SSE 11.3 km/h 19.3 km/h 81 % 0 mm
20:17 14.9 °C 11.9 °C 1025.6 hPa East 9.7 km/h 19.3 km/h 82 % 0 mm
20:22 14.8 °C 11.8 °C 1026 hPa SSE 6.4 km/h 20.9 km/h 82 % 0 mm
20:27 14.8 °C 11.8 °C 1026 hPa SE 6.4 km/h 20.9 km/h 82 % 0 mm
20:32 14.7 °C 11.8 °C 1025.6 hPa East 11.3 km/h 20.9 km/h 83 % 0 mm
20:37 14.7 °C 11.8 °C 1026 hPa SSE 8 km/h 14.5 km/h 83 % 0 mm
20:42 14.6 °C 11.7 °C 1026 hPa ESE 9.7 km/h 14.5 km/h 83 % 0 mm
20:47 14.6 °C 11.7 °C 1026 hPa SSE 1.6 km/h 14.5 km/h 83 % 0 mm
20:52 14.4 °C 11.7 °C 1026 hPa ESE 1.6 km/h 11.3 km/h 84 % 0 mm
20:57 14.3 °C 11.6 °C 1026 hPa ESE 11.3 km/h 11.3 km/h 84 % 0 mm
21:02 14.2 °C 11.5 °C 1026 hPa SE 3.2 km/h 12.9 km/h 84 % 0 mm
21:07 14.2 °C 11.7 °C 1026 hPa ESE 4.8 km/h 12.9 km/h 85 % 0 mm
21:12 14.1 °C 11.6 °C 1026 hPa SE 4.8 km/h 12.9 km/h 85 % 0 mm
21:17 14 °C 11.5 °C 1026 hPa SE 1.6 km/h 9.7 km/h 85 % 0 mm
21:22 14 °C 11.7 °C 1026 hPa ESE 8 km/h 9.7 km/h 86 % 0 mm
21:27 13.9 °C 11.6 °C 1026 hPa ENE 8 km/h 11.3 km/h 86 % 0 mm
21:32 13.9 °C 11.6 °C 1026 hPa ESE 11.3 km/h 11.3 km/h 86 % 0 mm
21:37 13.8 °C 11.5 °C 1026 hPa SE 3.2 km/h 12.9 km/h 86 % 0 mm
21:42 13.7 °C 11.4 °C 1026 hPa SSE 4.8 km/h 12.9 km/h 86 % 0 mm
21:47 13.7 °C 11.6 °C 1026 hPa ESE 3.2 km/h 12.9 km/h 87 % 0 mm
21:52 13.7 °C 11.6 °C 1026 hPa ESE 1.6 km/h 11.3 km/h 87 % 0 mm
21:57 13.6 °C 11.5 °C 1026 hPa SSE 3.2 km/h 12.9 km/h 87 % 0 mm
22:02 13.6 °C 11.5 °C 1026 hPa East 4.8 km/h 12.9 km/h 87 % 0 mm
22:07 13.6 °C 11.5 °C 1026 hPa East 1.6 km/h 12.9 km/h 87 % 0 mm
22:12 13.5 °C 11.6 °C 1026 hPa ESE 3.2 km/h 11.3 km/h 88 % 0 mm
22:17 13.4 °C 11.5 °C 1026.3 hPa SE 6.4 km/h 11.3 km/h 88 % 0 mm
22:22 13.3 °C 11.4 °C 1026.3 hPa South 3.2 km/h 8 km/h 88 % 0 mm
22:27 13.3 °C 11.4 °C 1026.3 hPa East 6.4 km/h 8 km/h 88 % 0 mm
22:32 13.3 °C 11.4 °C 1026.3 hPa ESE 3.2 km/h 11.3 km/h 88 % 0 mm
22:37 13.2 °C 11.3 °C 1026.3 hPa ESE 1.6 km/h 11.3 km/h 88 % 0 mm
22:42 13.2 °C 11.3 °C 1026.3 hPa SE 6.4 km/h 11.3 km/h 88 % 0 mm
22:47 13.2 °C 11.3 °C 1026.3 hPa Calm   12.9 km/h 88 % 0 mm
22:52 13.1 °C 11.2 °C 1026.3 hPa East 8 km/h 12.9 km/h 88 % 0 mm
22:57 13.1 °C 11.2 °C 1026.3 hPa ESE 6.4 km/h 12.9 km/h 88 % 0 mm
23:02 13.1 °C 11.2 °C 1026.3 hPa SE 1.6 km/h 11.3 km/h 88 % 0 mm
23:07 13 °C 11.1 °C 1026.3 hPa Calm   11.3 km/h 88 % 0 mm
23:12 12.9 °C 11 °C 1026.3 hPa SE 1.6 km/h 9.7 km/h 88 % 0 mm
23:17 12.9 °C 11.1 °C 1026.3 hPa ESE 4.8 km/h 8 km/h 89 % 0 mm
23:22 12.9 °C 11.1 °C 1026.3 hPa ESE 4.8 km/h 8 km/h 89 % 0 mm
23:27 13 °C 11.2 °C 1026.3 hPa East 3.2 km/h 8 km/h 89 % 0 mm
23:32 13.1 °C 11.3 °C 1026.3 hPa SE 3.2 km/h 8 km/h 89 % 0 mm
23:37 13.1 °C 11.3 °C 1026.3 hPa ESE 3.2 km/h 8 km/h 89 % 0 mm
23:42 13.1 °C 11.3 °C 1026 hPa ESE 1.6 km/h 8 km/h 89 % 0 mm
23:47 13.1 °C 11.3 °C 1026 hPa Calm   8 km/h 89 % 0 mm
23:52 13.2 °C 11.4 °C 1026 hPa Calm   8 km/h 89 % 0 mm
23:57 13.2 °C 11.4 °C 1026 hPa SE 1.6 km/h 8 km/h 89 % 0 mm
Spring, Texas: Villages of Bridgestone
Compliments of Weather Underground - 2.75 mb

Script developed by  Jim McMurry - jmcmurry@mwt.net Adapted for the template by  Wim van der Kuil - Leuven-Template.eu

You find our weather info also at:

UK Metoffice

WeatherCloud

Weather Underground

Mid-South Weather Network

AWEKAS

Citizen Weather Observer Program (CWOP)

HAMweather, WeatherForYou, PWS Weather

Equipment we use:

Weather-station
Davis Vantage Vue

Weather-program
Meteohub

Weather-server
Debian 7.9 x86 (Guest)

Provider
DreamHost

Davis Vantage Vue

Meteohub

Debian 7.9 x86 (Guest)

DreamHost